Location: Newark
(40.2401°N, 1.4098°W)
Time: 09:08:39
(UTC+00:00)

N. Korean satellite - Pass Details

Date: 23 October 2019
Orbit: 456 x 506 km, 97.2° (Epoch: 11 November)

Event Time Altitude Azimuth Distance (km) Brightness Sun altitude
Rises 05:06:24 0° 30° (NNE) 2,572 10.6 -15.6°
Reaches altitude 10° 05:09:01 10° 50° (NE) 1,694 10.0 -15.1°
Maximum altitude 05:11:32 17° 94° (E) 1,299 9.9 -14.6°
Drops below altitude 10° 05:14:02 10° 137° (SE) 1,700 10.0 -14.1°
Sets 05:16:39 0° 157° (SSE) 2,584 10.6 -13.6°
